[[{"header":{"parameterUnit":"m.s-1","parameterCategory":1,"la1":30.2991,"la2":30.254,"lo1":-89.0895,"lo2":-89.0444,"dy":0.0017,"dx":0.0017,"nx":28,"ny":28,"refTime":"2025-04-08T09:00:00:Z","depth":0,"parameterNumber":2,"parameterNumberName":"U-component_of_WINDS"},"data":[0,0,0,0,0,0,0,0,0,0,0,0,0,0,0,0,0,0,0,0,0,0,0,0,0,0,0,0,0,0,0,0,0,0,0,0,0,0,0,0,0,0,0,0,0,0,0,0,0,0,0,0,0,0,0,0,0,0,2.7163,2.7164,0,2.7211,2.7212,2.7212,2.7207,2.7206,2.7205,2.7204,2.725,2.7252,2.7254,0,0,0,0,0,0,0,0,0,0,0,0,0,2.7064,2.7066,2.7163,2.7164,2.7165,2.7211,2.7212,2.7212,2.7207,2.7206,2.7205,2.7204,2.725,2.7252,2.7254,0,0,0,0,0,0,0,0,0,0,0,0,0,2.7109,2.7067,2.7163,2.7167,2.7168,2.7211,2.7212,2.7213,2.7207,2.7206,2.7205,2.7204,2.7249,2.7252,2.7255,2.7295,0,0,2.7264,2.7265,0,0,0,0,0,0,0,0,2.7107,2.7113,2.7166,2.7167,2.7168,2.7202,2.7194,2.724,2.7207,2.7192,2.7204,2.7203,2.7235,2.7239,2.725,2.7297,2.7299,2.7264,2.7266,2.7267,2.7268,0,0,0,0,0,0,0,2.7104,2.7111,2.7182,2.7167,2.7168,2.7166,2.7171,2.7202,2.7219,2.7193,2.7193,2.7199,2.7235,2.7248,2.7251,2.73,2.7264,2.7266,2.7268,2.7269,2.7382,2.7383,0,0,0,0,0,0,2.71,2.7108,2.7181,2.7184,2.7134,2.7169,2.7174,2.7192,2.7219,2.7222,2.72,2.7199,2.7243,2.7248,2.7253,2.7301,2.7267,2.7269,2.7271,2.7381,2.7382,2.7384,0,0,0,0,0,0,2.7098,2.7106,2.7179,2.7146,2.7155,2.7172,2.7192,2.7194,2.7206,2.7224,2.7227,2.721,2.7242,2.7249,2.7285,2.7303,2.7271,2.7273,2.7379,2.7381,2.7383,2.7399,0,0,0,0,0,0,2.7095,2.7106,2.7122,2.7146,2.7157,2.7211,2.7193,2.7195,2.7211,2.721,2.7234,2.7236,2.7242,2.7281,2.7288,2.7306,2.7276,2.7378,2.738,2.7382,2.7396,2.7401,2.7404,0,0,0,0,0,2.7091,2.7124,2.7123,2.7131,2.7177,2.7212,2.7217,2.7224,2.7213,2.7229,2.724,2.7236,2.73,2.7284,2.7292,2.7312,2.7377,2.738,2.7382,2.7395,2.74,2.7404,0,0,0,0,0,0,2.7099,2.7127,2.7126,2.7168,2.7187,2.7211,2.7231,2.723,2.7252,2.725,2.7256,2.7262,2.7298,2.7309,2.7291,2.7352,2.7337,2.7341,2.7343,2.7348,2.7352,2.7348,2.7278,0,0,0,0,0,2.7106,2.7133,2.7155,2.7189,2.72,2.7214,2.7229,2.7232,2.7253,2.7261,2.7275,2.7294,2.7319,2.7335,2.7358,2.7399,2.7403,2.7416,2.742,2.7423,2.7427,2.7448,2.7453,2.7393,2.7393,2.7393,0,0,2.712,2.7139,2.7155,2.7192,2.7207,2.7233,2.7221,2.7249,2.7268,2.7265,2.7299,2.7311,2.7333,2.7371,2.7388,2.7381,2.7445,2.7427,2.7429,2.7431,2.7451,2.7457,2.7462,2.7395,2.7395,2.7394,0,0,2.7158,2.7176,2.7206,2.7222,2.7247,2.7256,2.7264,2.7287,2.7295,2.733,2.7328,2.7351,2.7393,2.7409,2.7422,2.7467,2.7463,2.7475,2.7495,2.7515,2.752,2.7524,2.7539,2.7544,2.7479,2.7479,2.7479,0,2.7172,2.7212,2.7221,2.725,2.7265,2.7266,2.7295,2.7311,2.7341,2.7352,2.7344,2.7397,2.7412,2.7453,2.7464,2.7476,2.7483,2.7471,2.7519,2.7523,2.7527,2.7541,2.7547,2.748,2.748,2.7479,2.7479,0,2.7227,2.7255,2.7276,2.7307,2.7325,2.7354,2.7367,2.7384,2.7387,2.7397,2.7432,2.745,2.7477,2.7488,2.749,2.7529,2.7524,2.7518,2.7501,2.7534,2.7547,2.7552,2.7481,2.7481,2.748,2.748,0,0,2.727,2.7306,2.7313,2.7327,2.7355,2.7376,2.7405,2.7432,2.7446,2.7468,2.7491,2.7528,2.7522,2.7537,2.7542,2.756,2.7593,2.7551,2.7552,2.7557,2.7636,2.7639,2.7645,2.7592,2.7593,2.7594,2.7633,0,2.7309,2.7361,2.737,2.7415,2.744,2.7441,2.7466,2.7486,2.7496,2.7518,2.7529,2.7554,2.7546,2.7555,2.7573,2.7585,2.7609,2.7583,2.7612,2.7613,2.7604,2.7652,2.7656,2.7692,2.7639,2.764,2.764,0,2.7362,2.7385,2.7433,2.7457,2.7468,2.749,2.7516,2.7538,2.756,2.7566,2.7584,2.7586,2.7615,2.76,2.7639,2.7621,2.7634,2.7642,2.7644,2.7645,2.7627,2.7652,2.7704,2.7708,2.7649,2.7648,2.7647,0,2.7386,2.743,2.7464,2.7476,2.7505,2.7521,2.7533,2.7554,2.757,2.7593,2.7603,2.7628,2.7642,2.7661,2.767,2.7658,2.7708,2.7694,2.7713,2.7712,2.7721,2.772,2.7773,2.7733,2.7733,2.7733,2.7733,0,2.7427,2.7456,2.7475,2.7495,2.7527,2.7538,2.7569,2.7581,2.76,2.7622,2.7625,2.7646,2.7657,2.768,2.7687,2.7718,2.7724,2.7729,2.773,2.7727,2.7727,2.7734,2.7731,2.7734,2.7734,2.7734,2.7734,0,2.7458,2.7473,2.7509,2.7535,2.7542,2.7564,2.7585,2.7605,2.7616,2.7644,2.7651,2.7668,2.7695,2.7706,2.7738,2.7743,2.7778,2.7778,2.7771,2.7771,2.7788,2.7785,2.7846,2.7854,2.781,2.7811,2.7811,0,2.7483,2.7505,2.7533,2.7549,2.7563,2.7588,2.7604,2.7616,2.7633,2.7659,2.7675,2.7702,2.7724,2.7766,2.778,2.7805,2.7805,2.7824,2.7808,2.7805,2.7803,2.78,2.7802,2.7826,2.7827,2.7827,2.7827,0,2.7525,2.7531,2.7555,2.7582,2.7601,2.7623,2.7644,2.7656,2.7671,2.7689,2.7717,2.7734,2.7767,2.7793,2.7819,2.7831,2.7831,2.7833,2.7838,2.7834,2.7828,2.783,2.7776,2.7831,2.783,2.783,2.783,2.783,2.7552,2.7572,2.7594,2.7621,2.7638,2.7658,2.7677,2.7691,2.7715,2.7743,2.7749,2.7778,2.7799,2.7833,2.7847,2.7869,2.7864,2.7872,2.7874,2.7875,2.7875,2.7827,2.7874,2.7874,2.7874,2.7874,2.7874,0,2.7592,2.7608,2.7632,2.7661,2.7682,2.7683,2.7706,2.7723,2.7748,2.7769,2.779,2.7821,2.7847,2.7864,2.789,2.7904,2.7905,2.791,2.7908,2.7911,2.7879,2.7871,2.7909,2.7909,2.7909,2.7909,2.7909,2.7909,2.7616,2.7648,2.7657,2.7698,2.7713,2.7742,2.7755,2.7772,2.7788,2.7823,2.7845,2.7856,2.7875,2.7902,2.7925,2.793,2.7938,2.7944,2.7947,2.7917,2.7913,2.7909,2.7902,2.7946,2.7946,2.7977,2.7977,2.7977]},{"header":{"parameterUnit":"m.s-1","parameterCategory":1,"la1":30.2991,"la2":30.254,"lo1":-89.0895,"lo2":-89.0444,"dy":0.0017,"dx":0.0017,"nx":28,"ny":28,"refTime":"2025-04-08T09:00:00:Z","depth":0,"parameterNumber":3,"parameterNumberName":"V-component_of_WINDS"},"data":[0,0,0,0,0,0,0,0,0,0,0,0,0,0,0,0,0,0,0,0,0,0,0,0,0,0,0,0,0,0,0,0,0,0,0,0,0,0,0,0,0,0,0,0,0,0,0,0,0,0,0,0,0,0,0,0,0,0,-4.3194,-4.3196,0,-4.342,-4.3422,-4.3425,-4.3399,-4.3395,-4.3392,-4.3388,-4.362,-4.363,-4.3639,0,0,0,0,0,0,0,0,0,0,0,0,0,-4.2741,-4.2749,-4.3194,-4.3196,-4.3199,-4.3419,-4.3422,-4.3426,-4.34,-4.3395,-4.3391,-4.3387,-4.3617,-4.3629,-4.364,0,0,0,0,0,0,0,0,0,0,0,0,0,-4.2949,-4.2752,-4.3193,-4.3213,-4.3217,-4.3419,-4.3423,-4.3426,-4.34,-4.3395,-4.339,-4.3385,-4.3614,-4.3628,-4.3642,-4.3839,0,0,-4.3685,-4.3692,0,0,0,0,0,0,0,0,-4.2937,-4.2966,-4.3207,-4.3212,-4.3217,-4.3376,-4.3348,-4.3565,-4.3402,-4.3331,-4.3388,-4.3382,-4.3543,-4.3563,-4.3618,-4.385,-4.386,-4.3687,-4.3695,-4.3702,-4.3706,0,0,0,0,0,0,0,-4.2923,-4.2956,-4.3283,-4.3211,-4.3217,-4.3211,-4.3234,-4.3389,-4.3465,-4.3337,-4.3335,-4.3362,-4.3545,-4.3604,-4.3623,-4.3863,-4.3686,-4.3699,-4.3708,-4.3713,-4.4269,-4.4275,0,0,0,0,0,0,-4.2903,-4.2944,-4.3276,-4.329,-4.3061,-4.3223,-4.325,-4.333,-4.3463,-4.3478,-4.3367,-4.336,-4.3582,-4.3606,-4.3631,-4.3871,-4.3701,-4.3715,-4.3723,-4.4263,-4.4271,-4.4277,0,0,0,0,0,0,-4.2894,-4.2933,-4.3267,-4.3117,-4.3159,-4.3237,-4.3327,-4.3337,-4.3396,-4.3486,-4.3499,-4.3413,-4.3579,-4.3611,-4.3787,-4.3879,-4.3721,-4.3734,-4.4256,-4.4265,-4.4274,-4.4353,0,0,0,0,0,0,-4.2881,-4.293,-4.3005,-4.3119,-4.3167,-4.342,-4.3333,-4.3346,-4.3421,-4.3415,-4.3533,-4.3547,-4.3577,-4.3766,-4.3802,-4.3896,-4.3746,-4.4248,-4.426,-4.4271,-4.4343,-4.4364,-4.4382,0,0,0,0,0,-4.2865,-4.3019,-4.3009,-4.305,-4.3263,-4.3425,-4.3452,-4.3484,-4.3428,-4.3505,-4.3563,-4.3543,-4.3863,-4.3785,-4.3824,-4.3924,-4.4242,-4.4257,-4.427,-4.4334,-4.436,-4.4382,0,0,0,0,0,0,-4.2915,-4.3034,-4.3025,-4.322,-4.3312,-4.342,-4.3518,-4.351,-4.362,-4.361,-4.3644,-4.3671,-4.3849,-4.3904,-4.3815,-4.4122,-4.4045,-4.4068,-4.408,-4.4106,-4.4125,-4.4109,-4.3757,0,0,0,0,0,-4.2948,-4.307,-4.3167,-4.333,-4.3377,-4.344,-4.3511,-4.3527,-4.3625,-4.3664,-4.3734,-4.383,-4.3952,-4.4031,-4.4149,-4.435,-4.4376,-4.4439,-4.4458,-4.4474,-4.4493,-4.4605,-4.4635,-4.4323,-4.4323,-4.4322,0,0,-4.3019,-4.3099,-4.3174,-4.3342,-4.3416,-4.3541,-4.3473,-4.3608,-4.3702,-4.3684,-4.3856,-4.3911,-4.402,-4.421,-4.4297,-4.4261,-4.4585,-4.4492,-4.4503,-4.4515,-4.4623,-4.4652,-4.4678,-4.4332,-4.433,-4.4329,0,0,-4.3213,-4.3285,-4.3429,-4.3504,-4.3616,-4.3657,-4.3691,-4.3801,-4.3837,-4.4009,-4.3999,-4.4111,-4.432,-4.4399,-4.4466,-4.4689,-4.4676,-4.4726,-4.483,-4.4939,-4.4963,-4.4985,-4.5066,-4.5095,-4.4745,-4.4745,-4.4745,0,-4.3287,-4.3475,-4.3504,-4.3642,-4.3716,-4.3706,-4.3852,-4.3924,-4.4069,-4.4121,-4.4078,-4.4341,-4.4413,-4.4622,-4.4677,-4.4731,-4.4773,-4.4714,-4.4957,-4.498,-4.5,-4.5078,-4.5108,-4.4751,-4.475,-4.475,-4.4749,0,-4.3561,-4.3692,-4.3795,-4.3935,-4.4021,-4.4163,-4.4213,-4.4297,-4.4306,-4.4351,-4.4527,-4.4614,-4.4749,-4.4799,-4.4808,-4.501,-4.4985,-4.4949,-4.4873,-4.5035,-4.5109,-4.5139,-4.4759,-4.4757,-4.4755,-4.4754,0,0,-4.3794,-4.3948,-4.3985,-4.4049,-4.4172,-4.4274,-4.4415,-4.4547,-4.4619,-4.4719,-4.4838,-4.5016,-4.4984,-4.506,-4.5078,-4.5174,-4.5347,-4.5127,-4.513,-4.5166,-4.5576,-4.5603,-4.5637,-4.5338,-4.5344,-4.5348,-4.5567,0,-4.4,-4.4249,-4.428,-4.4502,-4.4623,-4.4615,-4.4738,-4.4827,-4.4873,-4.4983,-4.5034,-4.516,-4.5108,-4.5154,-4.5248,-4.5306,-4.543,-4.529,-4.5451,-4.5456,-4.5426,-4.5675,-4.5704,-4.5907,-4.5596,-4.5601,-4.5605,0,-4.4275,-4.4383,-4.4617,-4.4724,-4.4776,-4.4886,-4.501,-4.5115,-4.5216,-4.5243,-4.5328,-4.5334,-4.548,-4.5397,-4.56,-4.5504,-4.5571,-4.561,-4.5618,-4.5636,-4.5541,-4.5701,-4.5972,-4.6003,-4.565,-4.5646,-4.5643,0,-4.4423,-4.4626,-4.4793,-4.4848,-4.4976,-4.5054,-4.5111,-4.5206,-4.5284,-4.5392,-4.5443,-4.5566,-4.5635,-4.573,-4.577,-4.5705,-4.5971,-4.589,-4.5999,-4.5998,-4.6056,-4.6052,-4.6343,-4.6097,-4.6097,-4.6096,-4.6095,0,-4.4651,-4.4795,-4.4861,-4.4964,-4.5125,-4.5158,-4.5317,-4.5371,-4.5456,-4.557,-4.5569,-4.5676,-4.5721,-4.5835,-4.5867,-4.6031,-4.6061,-4.6088,-4.6095,-4.6089,-4.6086,-4.6135,-4.6122,-4.6104,-4.6102,-4.6101,-4.6099,0,-4.4844,-4.4894,-4.5075,-4.5182,-4.5212,-4.5326,-4.5418,-4.5517,-4.5562,-4.5706,-4.5741,-4.5812,-4.5946,-4.5994,-4.6157,-4.6179,-4.6369,-4.6364,-4.6335,-4.6337,-4.6444,-4.6434,-4.6778,-4.6825,-4.6546,-4.6548,-4.655,0,-4.4988,-4.5098,-4.5216,-4.5292,-4.5352,-4.5474,-4.5553,-4.559,-4.5673,-4.5797,-4.5882,-4.6015,-4.6124,-4.6339,-4.6405,-4.653,-4.6528,-4.664,-4.6547,-4.6538,-4.6532,-4.6526,-4.6538,-4.6658,-4.6661,-4.6663,-4.6665,0,-4.5237,-4.5257,-4.537,-4.5494,-4.5588,-4.5687,-4.5783,-4.5845,-4.5896,-4.5989,-4.6126,-4.621,-4.6377,-4.651,-4.6638,-4.6697,-4.6692,-4.6694,-4.6726,-4.6722,-4.6702,-4.6716,-4.6384,-4.6686,-4.6684,-4.6683,-4.6681,-4.6681,-4.5411,-4.551,-4.5608,-4.5736,-4.5811,-4.5901,-4.6,-4.6057,-4.6172,-4.631,-4.6325,-4.6473,-4.6572,-4.6743,-4.6808,-4.6925,-4.6895,-4.694,-4.6952,-4.6964,-4.6972,-4.6681,-4.6948,-4.6948,-4.6947,-4.6947,-4.6946,0,-4.5663,-4.5726,-4.5842,-4.5976,-4.6076,-4.606,-4.6165,-4.6251,-4.6381,-4.6473,-4.658,-4.6738,-4.6867,-4.6943,-4.7073,-4.7152,-4.7152,-4.7185,-4.718,-4.7194,-4.6991,-4.6952,-4.7182,-4.7182,-4.7182,-4.7182,-4.7182,-4.7182,-4.5805,-4.5971,-4.6002,-4.6205,-4.6268,-4.6412,-4.6474,-4.6557,-4.6631,-4.6808,-4.6915,-4.6963,-4.705,-4.7185,-4.7303,-4.7322,-4.7371,-4.7407,-4.7423,-4.7233,-4.7208,-4.7185,-4.7148,-4.7416,-4.7417,-4.7617,-4.7619,-4.762]}]]